SCP
1 0 0 0 0 0 0 0 0 0 0 0 0 0 0 0 0 0 0 0 0 0 0 0 0 0 0 0 0 0 0 0 0 0 0 0 0 0 0 0 1 1 1 1
0 0 0 0 0 0 0 0 0 0 0 0 0 0 0 0 0 0 0 0 0 0 0 0 0 0 0 0 0 0 0 0 0 0 0 0 0 0 0 0 1 1 1 1
0 0 0 0 0 0 0 0 0 0 0 0 0 0 0 0 0 0 0 0 0 0 0 0 0 0 0 0 0 0 0 0 0 0 0 0 0 0 0 0 0 0 1 1
0 0 0 0 0 0 0 0 0 0 0 0 0 0 0 0 0 0 0 0 0 0 0 0 0 0 0 0 0 0 0 0 0 0 0 0 0 0 0 0 0 0 0 0
0 0 0 0 0 0 0 0 0 0 0 0 0 0 0 0 0 0 0 0 0 0 0 0 0 0 0 0 0 0 0 0 0 0 0 0 0 0 0 0 0 0 0 0
0 0 0 0 0 0 0 0 0 0 0 0 0 0 0 0 0 0 0 0 0 0 0 0 0 0 0 0 0 0 0 0 0 0 0 0 0 0 0 0 0 0 0 0
0 0 0 0 0 0 0 0 0 0 0 0 0 0 0 0 0 0 0 0 0 0 0 0 0 0 0 0 0 0 0 0 0 0 0 0 0 0 0 0 0 0 0 0
0 0 0 0 0 0 0 0 0 0 0 0 0 0 0 0 0 0 0 0 0 0 0 0 0 0 0 0 0 0 0 0 0 0 0 0 0 0 0 0 0 0 0 0
0 0 0 0 0 0 0 0 0 0 0 0 0 0 0 0 0 0 0 0 0 0 0 0 0 0 0 0 0 0 0 0 0 0 0 0 0 0 0 0 0 0 0 0
0 0 0 0 0 0 0 0 0 0 0 0 0 0 0 0 0 0 0 0 0 0 0 0 0 0 0 0 0 0 0 0 0 0 0 0 0 0 0 0 0 0 0 0
0 0 0 0 0 0 0 0 0 0 0 0 0 0 0 0 0 0 0 0 0 0 0 0 0 0 0 0 0 0 0 0 0 0 0 0 0 0 0 0 0 0 0 0
0 0 0 0 0 0 0 0 0 0 0 0 0 0 0 0 0 0 0 0 0 0 0 0 0 0 0 0 0 0 0 0 0 0 0 0 0 0 0 0 0 0 0 0
0 0 0 0 0 0 0 0 0 0 0 0 0 0 0 0 0 0 0 0 0 0 0 0 0 0 0 0 0 0 0 0 0 0 0 0 0 0 0 0 0 0 0 0
0 0 0 0 0 0 0 0 0 0 0 0 0 0 0 0 0 0 0 0 0 0 0 0 0 0 0 0 0 0 0 0 0 0 0 0 0 0 0 0 0 0 0 0
0 0 0 0 0 0 0 0 0 0 0 0 0 0 0 0 0 0 0 0 0 0 0 0 0 0 0 0 0 0 0 0 0 0 0 0 0 0 0 0 0 0 0 0
0 0 0 0 0 0 0 0 0 0 0 0 0 0 0 0 0 0 0 0 0 0 0 0 0 0 0 0 0 0 0 0 0 0 0 0 0 0 0 0 0 0 0 0
0 0 0 0 0 0 0 0 0 0 0 0 0 0 0 0 0 0 0 0 0 0 0 0 0 0 0 0 0 0 0 0 0 0 0 0 0 0 0 0 0 0 0 0
0 0 0 0 0 0 0 0 0 0 0 0 0 0 0 0 0 0 0 0 0 0 0 0 0 0 0 0 0 0 0 0 0 0 0 0 0 0 0 0 0 0 0 0
0 0 0 0 0 0 0 0 0 0 0 0 0 0 0 0 0 0 0 0 0 0 0 0 0 0 0 0 0 0 0 0 0 0 0 0 0 0 0 0 0 0 0 0
0 0 0 0 0 0 0 0 0 0 0 0 0 0 0 0 0 0 0 0 0 0 0 0 0 0 0 0 0 0 0 0 0 0 0 0 0 0 0 0 0 0 0 0
0 0 0 0 0 0 0 0 0 0 0 0 0 0 0 0 0 0 0 0 0 0 0 0 0 0 0 0 0 0 0 0 0 0 0 0 0 0 0 0 0 0 0 0
0 0 0 0 0 0 0 0 0 0 0 0 0 0 0 0 0 0 0 0 0 0 0 0 0 0 0 0 0 0 0 0 0 0 0 0 0 0 0 0 0 0 0 0
0 0 0 0 0 0 0 0 0 0 0 0 0 0 0 0 0 0 0 0 0 0 0 0 0 0 0 0 0 0 0 0 0 0 0 0 0 0 0 0 0 0 0 0
0 0 0 0 0 0 0 0 0 0 0 0 0 0 0 0 0 0 0 0 0 0 0 0 0 0 0 0 0 0 0 0 0 0 0 0 0 0 0 0 0 0 0 0
0 0 0 0 0 0 0 0 0 0 0 0 0 0 0 0 0 0 0 0 0 0 0 0 0 0 0 0 0 0 0 0 0 0 0 0 0 0 0 0 0 0 0 0
0 0 0 0 0 0 0 0 0 0 0 0 0 0 0 0 0 0 0 0 0 0 0 0 0 0 0 0 0 0 0 0 0 0 0 0 0 0 0 0 0 0 0 0
Wind_Speed
6 8 8 7 3 2 2 4 3 2 2 5 8 7 5 8 8 8 7 5 4 3 4 4 6 6 7 7 8 8 9 9 7 6 6 6 6 5 5 5 6 6 7 7
9 6 4 5 4 3 3 4 2 3 2 5 6 8 6 8 9 8 7 6 4 4 4 4 5 6 7 7 8 8 9 8 8 6 6 6 6 6 5 5 6 6 6 6
8 7 7 7 7 4 2 2 1 2 3 4 6 7 6 7 8 8 8 7 6 4 5 6 6 6 6 7 7 7 8 8 7 8 6 6 5 5 4 6 6 7 7 6
8 6 7 7 4 2 2 2 2 3 5 2 3 4 3 4 7 9 9 8 6 4 4 4 5 6 7 7 7 7 8 8 7 7 6 8 6 6 7 6 6 7 7 7
7 6 6 4 4 0 5 3 3 3 4 5 4 6 2 3 4 5 6 7 6 4 4 4 4 6 6 6 6 6 7 7 7 7 6 7 6 6 6 6 8 7 6 7
8 4 3 4 5 4 7 6 4 4 6 5 1 5 2 2 1 0 2 5 5 4 4 4 4 4 5 5 5 5 5 6 6 6 6 7 7 8 8 8 8 7 6 5
8 6 4 4 6 6 6 6 4 6 5 1 2 5 4 2 1 3 2 3 4 4 4 4 4 5 5 5 5 5 5 5 6 6 6 7 7 8 8 8 7 7 6 6
9 7 5 3 2 3 3 6 5 4 2 1 4 5 1 2 1 3 4 4 4 4 4 4 4 5 5 5 4 5 5 5 5 6 7 7 7 6 6 7 7 7 6 7
5 7 5 3 1 2 4 3 4 5 3 4 3 2 2 3 4 5 6 6 6 5 5 5 5 5 5 5 4 4 5 5 5 6 6 6 7 7 7 7 7 6 6 7
3 6 7 5 5 3 4 2 4 5 4 3 2 3 0 2 2 3 6 7 7 6 6 5 5 5 5 5 5 4 4 5 5 5 5 5 6 7 7 7 8 8 8 8
3 6 8 7 6 4 5 4 4 3 4 5 2 2 3 1 2 3 4 5 6 6 6 5 5 5 5 5 5 5 4 4 4 5 5 5 5 6 7 6 7 7 8 8
1 4 5 5 3 2 4 4 6 5 3 3 4 0 4 2 4 5 5 4 5 6 6 6 5 5 5 5 5 5 4 4 4 4 5 5 5 6 6 7 7 7 8 8
5 5 6 7 7 6 5 4 5 4 4 4 4 1 5 3 5 6 6 6 6 6 7 6 6 6 5 5 5 5 4 4 4 4 5 5 5 6 7 7 7 7 7 8
4 6 6 3 2 6 6 7 8 8 5 4 6 6 4 6 6 5 5 6 7 7 7 7 6 6 5 5 5 5 4 4 4 4 4 5 5 6 6 7 7 7 7 8
6 6 4 1 2 3 5 8 11 11 7 6 5 8 11 8 6 5 4 5 7 8 8 8 7 6 5 5 5 4 4 4 4 4 4 4 5 5 6 6 7 7 7 8
6 5 5 5 4 6 7 9 11 11 9 10 11 10 5 4 4 5 5 5 7 8 8 8 7 6 6 5 5 4 4 4 4 5 4 4 5 5 5 6 7 7 7 7
7 7 6 6 5 5 9 11 12 8 8 7 6 3 4 6 5 5 4 5 7 7 7 8 7 6 6 5 4 4 4 3 4 4 4 4 4 5 5 6 6 7 7 7
7 7 4 4 6 8 3 4 6 7 6 8 8 8 7 7 7 6 6 7 7 6 7 7 7 6 6 5 4 4 4 4 4 4 4 4 4 4 5 5 6 7 7 7
4 5 5 4 5 4 4 6 7 6 4 5 6 5 4 4 5 2 0 3 5 5 5 6 6 6 6 5 5 5 5 5 5 5 5 4 4 4 5 5 6 6 6 7
3 6 6 5 6 5 5 7 5 5 5 4 4 2 2 3 2 3 4 2 3 3 5 5 5 6 6 6 5 6 6 6 5 5 5 5 5 5 6 6 6 6 6 6
9 7 9 8 6 4 5 7 7 7 4 4 3 2 2 3 4 5 4 3 2 3 4 5 6 6 6 6 6 7 7 7 5 5 5 6 6 6 6 6 6 6 6 6
10 8 8 7 8 5 7 9 7 3 4 2 2 1 2 4 4 4 4 3 2 2 3 5 6 6 6 6 7 8 8 7 6 6 7 7 7 7 6 6 7 7 6 7
8 6 4 6 2 5 3 3 2 2 3 1 2 2 3 3 3 3 3 3 2 2 2 4 6 6 6 7 8 10 8 7 7 7 8 8 8 7 7 7 7 7 6 6
7 4 5 6 6 4 3 3 2 3 5 3 3 2 2 1 2 3 3 3 3 3 3 3 4 6 6 6 7 9 9 7 8 9 9 9 9 8 8 6 6 6 6 6
6 9 7 7 5 6 6 5 3 2 2 3 3 3 2 2 3 4 4 5 5 4 4 3 3 5 6 6 6 7 7 8 10 10 10 9 9 8 8 7 6 7 7 6
9 9 9 8 9 9 8 8 6 5 5 4 5 6 6 5 5 5 6 6 6 6 6 5 5 5 6 6 6 6 6 7 10 10 10 8 7 7 7 7 7 9 11 7
Wind_Direction
171 192 191 183 204 316 271 259 264 105 139 235 249 257 217 202 216 227 232 244 273 315 334 348 342 344 339 344 346 349 345 349 347 346 340 337 338 333 334 330 330 318 308 301
173 173 115 114 135 163 192 236 218 143 154 257 269 265 238 216 226 237 249 255 269 299 314 340 338 345 341 345 346 346 351 350 349 348 335 328 327 324 333 332 331 328 319 309
181 118 136 149 156 164 166 276 251 184 172 215 277 254 210 209 223 232 242 253 270 287 309 332 340 341 340 344 347 346 348 346 350 344 338 334 333 323 341 343 340 335 327 316
99 121 153 152 132 229 145 90 164 188 234 207 278 290 160 192 223 231 235 238 249 261 285 312 326 335 339 343 342 341 347 347 348 341 344 344 340 342 339 334 333 329 329 326
113 137 155 137 97 87 93 122 166 225 258 261 214 269 154 167 244 234 229 232 239 248 270 297 317 327 330 335 334 336 340 348 352 347 344 334 342 340 333 335 337 335 334 333
104 99 58 94 92 102 136 156 161 210 243 247 185 269 275 158 310 348 198 213 220 231 250 276 299 311 321 323 324 329 334 345 348 342 341 342 343 338 339 341 341 338 335 336
129 117 106 141 145 151 207 231 223 209 212 193 110 260 280 48 302 261 233 207 211 225 251 271 290 306 320 321 320 322 328 333 341 341 343 344 343 336 340 340 341 337 337 339
168 150 135 167 251 203 214 262 286 299 308 131 187 249 9 83 272 235 229 227 224 231 247 266 282 294 301 308 309 315 322 326 334 335 342 343 343 336 340 340 334 335 334 334
185 127 114 92 83 245 195 219 336 294 283 268 209 241 246 171 221 220 224 227 231 236 241 260 275 284 292 297 299 303 310 320 329 334 337 339 342 341 339 335 335 337 336 333
157 138 147 140 157 64 339 136 212 252 279 268 228 239 253 182 241 225 229 232 233 233 242 255 269 278 287 295 291 287 295 310 322 327 333 337 334 338 337 334 342 340 338 339
202 167 154 184 217 188 171 193 232 254 283 294 307 102 84 327 317 291 263 238 231 230 239 254 268 276 284 283 275 272 279 297 315 323 331 329 337 336 332 338 340 336 337 337
182 233 174 159 102 336 250 238 227 258 225 263 286 322 120 247 281 279 274 246 229 230 238 248 262 271 273 281 282 277 279 290 302 315 321 327 330 331 334 341 341 338 339 338
166 212 184 168 176 188 210 206 225 257 258 241 261 94 127 251 275 267 258 250 228 224 231 242 250 262 271 278 277 276 274 280 287 297 309 316 328 339 338 338 339 335 336 334
227 223 248 280 92 161 187 189 202 218 240 246 249 291 307 309 307 292 255 240 230 225 228 237 248 255 263 271 274 276 276 274 275 282 295 311 327 334 332 336 333 333 336 334
234 228 210 185 124 192 209 196 199 220 246 270 292 294 303 317 319 305 273 239 227 227 228 233 243 254 259 263 267 271 274 271 269 277 289 309 320 327 328 331 330 332 333 330
221 217 193 191 196 222 235 221 212 227 245 256 276 286 293 310 292 280 259 235 230 229 229 232 238 246 256 261 267 271 266 267 268 278 291 307 308 320 324 329 333 333 331 332
193 207 213 203 173 222 239 218 204 210 217 234 256 294 331 301 298 294 282 248 240 235 230 231 235 239 250 261 271 273 276 273 265 275 282 288 302 314 321 327 331 329 328 334
200 204 221 217 197 232 96 98 186 212 227 228 255 284 297 299 300 284 271 262 251 237 229 227 230 229 236 241 243 253 254 258 265 272 273 277 288 301 311 316 322 324 330 333
251 208 219 228 226 238 178 174 182 201 195 202 237 269 298 307 269 202 149 260 260 247 230 225 228 228 233 237 242 243 246 251 259 265 269 267 272 288 300 308 313 322 323 325
194 231 233 222 237 227 146 137 169 211 184 156 214 271 300 272 278 61 37 329 277 246 229 223 219 227 233 231 233 246 255 258 259 261 264 265 268 277 285 297 306 312 310 313
187 203 222 227 240 241 119 139 173 210 134 128 192 251 252 275 349 7 346 324 292 251 229 223 224 229 236 233 230 245 256 261 264 259 259 259 259 264 275 286 291 294 300 306
196 194 202 207 222 205 135 169 201 71 87 147 198 248 280 297 317 320 320 330 310 259 227 226 232 236 237 233 236 248 257 264 260 250 251 254 257 261 266 270 280 288 293 295
216 217 208 214 209 78 161 208 25 326 257 246 263 280 287 288 318 336 335 336 327 300 262 241 244 251 247 236 238 253 260 259 253 248 250 255 257 257 260 265 271 277 279 284
192 196 215 220 214 185 178 200 231 251 253 270 270 269 262 281 2 13 14 7 359 343 323 286 262 260 262 258 246 253 265 263 256 255 257 257 258 259 257 256 263 269 276 279
181 182 208 222 174 171 196 197 187 173 168 153 127 97 75 77 55 40 36 26 15 8 357 333 306 296 295 293 278 273 273 266 261 261 260 259 259 261 264 258 253 261 264 268
187 194 202 220 189 188 174 160 166 160 144 131 124 103 78 66 61 54 49 36 26 19 14 8 357 338 327 324 317 314 301 281 271 269 269 265 261 256 256 261 255 229 238 242